#timestamp,LO_Frequency,Hit,StdDev 
1608937215.3,286047002.2,P
1608937235.1,286047002.4,Y
1608937255.8,286046998.9,P
1608937275.7,286047000.6,N
1608937295.5,286047001.2,N
1608937315.3,286047000.4,N
1608937335.2,286047000.5,N
1608937355.0,286047000.5,N
1608937355.9,286047000.5,N
1608937375.7,286047000.0,N
1608937395.6,286047000.2,N
1608937415.4,286047000.4,N
1608937435.2,286047002.7,Y
1608937455.1,286047002.0,P
1608937456.0,286047002.0,N
1608937475.8,286047001.7,N
1608937495.6,286047001.6,N
1608937515.5,286047001.8,Y
1608937535.3,286047000.0,P
1608937555.1,286046999.9,N
1608937575.9,286047002.3,P
1608937595.7,286047001.6,N
1608937615.5,286047004.4,Y
1608937635.4,286047001.9,P
1608937655.2,286047002.6,P
1608937675.0,286047000.2,N
1608937675.9,286047000.2,N
1608937695.8,286047002.3,N
1608937715.6,286046999.8,N
1608937735.4,286046999.9,N
1608937755.3,286047002.2,N
1608937775.1,286047002.2,N
1608937795.8,286047001.4,N
1608937815.7,286047004.4,Y
1608937835.5,286047000.3,P
1608937855.3,286047002.7,P
1608937875.2,286047000.3,N
1608937895.9,286047000.2,N
1608937915.7,286047002.4,N
1608937935.6,286046999.8,N
1608937955.4,286047000.2,N
1608937975.2,286047002.0,N
1608937995.1,286047002.7,N
1608937996.0,286047002.7,N
1608938015.8,286047000.2,N
1608938035.6,286047001.7,N
1608938055.5,286047001.6,N
1608938075.3,286047001.3,N
1608938095.1,286047001.8,N
1608938115.9,286047003.8,Y
1608938135.7,286047002.2,P
1608938155.5,286046999.7,N
1608938175.4,286047001.4,N
1608938195.2,286047002.0,N
1608938215.0,286047001.6,N
1608938215.9,286047001.6,N
1608938235.8,286047004.2,Y
1608938255.6,286047002.8,P
1608938275.4,286047000.5,N
1608938295.3,286047000.7,N
1608938315.1,286046999.8,N
1608938316.0,286046999.8,N
1608938335.8,286047000.2,N
1608938355.7,286047001.9,N
1608938375.5,286047002.3,N
1608938395.3,286047002.1,N
1608938415.1,286047001.9,N
1608938435.9,286047001.8,N
1608938455.7,286047004.4,Y
1608938475.5,286047002.6,P
1608938495.4,286046999.9,N
1608938515.2,286047000.1,N
1608938535.0,286047000.0,N
1608938535.9,286047000.0,N
1608938555.8,286047002.6,N
1608938575.6,286046999.8,N
1608938595.4,286047000.3,N
1608938615.3,286047000.1,N
1608938635.1,286047002.4,N
1608938655.8,286047002.3,N
1608938675.7,286047000.1,N
1608938695.5,286047002.4,N
1608938715.3,286047001.8,N
1608938735.2,286047002.7,N
1608938755.9,286047000.2,N
1608938775.7,286046999.9,N
1608938795.6,286046999.9,N
1608938815.4,286047000.5,N
1608938835.2,286047000.7,N
1608938855.1,286047001.1,N
1608938856.0,286047001.1,N
1608938875.8,286047000.7,N
1608938895.6,286046998.9,N
1608938915.5,286046996.7,Y
1608938935.3,286046999.2,P
1608938955.1,286046997.2,P
1608938975.9,286046996.5,N
1608938995.7,286046997.2,N
1608939015.5,286046998.9,N
1608939035.4,286046999.6,N
1608939055.2,286046997.2,N
1608939075.0,286046996.8,N
1608939075.9,286046996.8,N
1608939095.8,286046997.1,N
1608939115.6,286046997.2,N
1608939135.4,286046997.0,N
1608939155.2,286046997.3,N
1608939175.1,286046999.6,N
1608939176.0,286046999.6,N
1608939195.8,286046999.3,N
1608939215.6,286046996.6,N
1608939235.5,286046996.5,N
1608939255.3,286046996.9,N
1608939275.1,286046996.8,N
1608939295.9,286046997.1,N
1608939315.7,286046999.2,N
1608939335.5,286046995.0,Y
1608939355.4,286046999.2,P
1608939375.2,286046996.8,P
1608939395.0,286046999.2,N
1608939395.9,286046999.2,N
1608939415.8,286046997.2,N
1608939435.6,286046997.7,N
1608939455.4,286046996.7,Y
1608939475.3,286046998.7,P
1608939495.1,286046999.1,P
1608939515.8,286046999.6,N
1608939535.7,286046996.5,Y
1608939555.5,286046998.7,P
1608939575.3,286046996.5,P
1608939595.2,286046996.7,P
1608939615.9,286046999.4,N
1608939635.7,286046999.3,N
1608939655.6,286046999.0,N
1608939675.4,286046999.4,N
1608939695.2,286046996.9,N
1608939715.1,286046997.2,N
1608939716.0,286046997.2,N
1608939735.8,286046999.4,N
1608939755.6,286046998.6,N
1608939775.5,286046999.3,N
1608939795.3,286046996.7,Y
1608939815.1,286046998.9,P
1608939835.9,286046999.2,N
1608939855.7,286046998.8,P
1608939875.5,286046997.0,Y
1608939895.4,286046998.1,P
1608939915.2,286047001.1,P
1608939935.0,286047000.3,N
1608939935.9,286047000.3,N
1608939955.8,286046998.6,N
1608939975.6,286047000.7,N
1608939995.4,286047000.3,N
1608940015.2,286047000.9,N
1608940035.1,286046998.1,N
1608940036.0,286046998.1,N
1608940055.8,286046998.6,N
1608940075.6,286046998.4,N
1608940095.5,286046999.1,N
1608940115.3,286046998.9,N
1608940135.1,286046998.8,N
1608940155.9,286046999.5,N
1608940175.7,286046998.6,N
1608940195.5,286046998.4,N
1608940215.4,286046998.9,N
1608940235.2,286046998.9,N
1608940255.0,286046999.0,N
1608940255.9,286046999.0,N
1608940275.8,286046999.6,N
1608940295.6,286046999.1,N
1608940315.4,286046999.3,N
1608940335.3,286046996.5,Y
1608940355.1,286046999.1,P
1608940375.8,286046997.3,P
1608940395.7,286046995.1,P
1608940415.5,286046997.5,N
1608940435.3,286046997.7,N
1608940455.2,286046994.9,Y
1608940475.9,286046999.5,P
1608940495.7,286046996.5,P
1608940515.6,286046997.1,N
1608940535.4,286046996.6,Y
1608940555.2,286047000.2,P
1608940575.1,286047000.6,N
1608940576.0,286047000.6,N
1608940595.8,286047000.1,N
1608940615.6,286047000.1,N
1608940635.5,286047000.1,N
1608940655.3,286046998.1,N
1608940675.1,286046998.4,N
1608940695.9,286046998.2,N
1608940715.7,286047000.8,N
1608940735.5,286047000.5,N
1608940755.4,286047000.3,N
1608940775.2,286046998.3,N
1608940795.0,286047000.4,N
1608940795.9,286047000.4,N
